• In Germany
  • List of Countries
  • For 7 days
  • Water Temperature
  • Satellite Maps
  • Weather Map
  • Weather Widgets
  • user-avatar
    Login

    Hourly Weather Newcastle

    Today, 26 March, Sunday

    Time Temperature Precipitation Wind Pressure Humidity
    00:00 +19°C° 0 mm 1 mps 759 mmHg 98%
    01:00 +19°C° 0 mm 1 mps 759 mmHg 98%
    02:00 +19°C° 0 mm 1 mps 759 mmHg 98%
    03:00 +19°C° 0 mm 1 mps 759 mmHg 98%
    04:00 +19°C° 0 mm 1 mps 759 mmHg 98%
    05:00 +20°C° 0 mm 1 mps 759 mmHg 96%
    06:00 +21°C° 0 mm 1 mps 760 mmHg 94%
    07:00 +22°C° 0 mm 1 mps 760 mmHg 91%
    08:00 +24°C° 0 mm 1 mps 760 mmHg 82%
    09:00 +26°C° 0 mm 2 mps 760 mmHg 73%
    10:00 +28°C° 0 mm 2 mps 760 mmHg 63%
    11:00 +29°C° 0.1 mm 2 mps 760 mmHg 63%
    12:00 +29°C° 0.1 mm 2 mps 760 mmHg 63%
    13:00 +29°C° 0.1 mm 3 mps 760 mmHg 62%
    14:00 +29°C° 0.1 mm 3 mps 760 mmHg 65%
    15:00 +28°C° 0.1 mm 3 mps 759 mmHg 67%
    16:00 +28°C° 0.1 mm 3 mps 759 mmHg 69%
    17:00 +26°C° 0 mm 3 mps 760 mmHg 78%
    18:00 +24°C° 0 mm 3 mps 760 mmHg 87%
    19:00 +22°C° 0 mm 3 mps 761 mmHg 95%
    20:00 +21°C° 0 mm 3 mps 761 mmHg 96%
    21:00 +21°C° 0 mm 2 mps 762 mmHg 96%
    22:00 +21°C° 0 mm 2 mps 762 mmHg 97%
    23:00 +21°C° 0 mm 2 mps 762 mmHg 97%

    Tomorrow, 27 March, Monday

    Time Temperature Precipitation Wind Pressure Humidity
    00:00 +21°C° 0 mm 2 mps 762 mmHg 97%
    01:00 +20°C° 0 mm 2 mps 762 mmHg 97%
    02:00 +20°C° 0 mm 2 mps 762 mmHg 97%
    03:00 +20°C° 0 mm 2 mps 761 mmHg 97%
    04:00 +20°C° 0 mm 2 mps 761 mmHg 97%
    05:00 +20°C° 0 mm 2 mps 761 mmHg 96%
    06:00 +20°C° 0 mm 2 mps 762 mmHg 95%
    07:00 +21°C° 0 mm 2 mps 762 mmHg 93%
    08:00 +23°C° 0 mm 2 mps 762 mmHg 83%
    09:00 +25°C° 0 mm 3 mps 762 mmHg 73%
    10:00 +27°C° 0 mm 3 mps 762 mmHg 63%
    11:00 +28°C° 0 mm 3 mps 761 mmHg 59%
    12:00 +30°C° 0 mm 3 mps 760 mmHg 54%
    13:00 +32°C° 0 mm 4 mps 759 mmHg 50%
    14:00 +32°C° 0 mm 4 mps 759 mmHg 51%
    15:00 +32°C° 0 mm 4 mps 759 mmHg 52%
    16:00 +30°C° 0 mm 4 mps 758 mmHg 53%
    17:00 +28°C° 0 mm 4 mps 758 mmHg 64%
    18:00 +26°C° 0 mm 5 mps 758 mmHg 75%
    19:00 +23°C° 0 mm 5 mps 759 mmHg 86%
    20:00 +23°C° 0 mm 5 mps 759 mmHg 89%
    21:00 +22°C° 0 mm 5 mps 759 mmHg 92%
    22:00 +22°C° 0 mm 5 mps 759 mmHg 95%
    23:00 +21°C° 0 mm 4 mps 759 mmHg 94%

    Day after tomorrow, 28 March, Tuesday

    Time Temperature Precipitation Wind Pressure Humidity
    00:00 +21°C° 0 mm 4 mps 758 mmHg 93%
    01:00 +21°C° 0 mm 4 mps 758 mmHg 91%
    02:00 +21°C° 0 mm 3 mps 758 mmHg 88%
    03:00 +21°C° 0 mm 3 mps 758 mmHg 85%
    04:00 +21°C° 0 mm 2 mps 758 mmHg 81%
    05:00 +21°C° 0 mm 2 mps 758 mmHg 81%
    06:00 +21°C° 0 mm 2 mps 759 mmHg 80%
    07:00 +22°C° 0 mm 3 mps 760 mmHg 79%
    08:00 +24°C° 0 mm 3 mps 760 mmHg 75%
    09:00 +26°C° 0 mm 3 mps 760 mmHg 72%
    10:00 +28°C° 0 mm 3 mps 760 mmHg 68%
    11:00 +29°C° 0 mm 3 mps 760 mmHg 64%
    12:00 +30°C° 0 mm 3 mps 759 mmHg 59%
    13:00 +33°C° 0 mm 3 mps 759 mmHg 55%
    14:00 +31°C° 0 mm 3 mps 759 mmHg 58%
    15:00 +31°C° 0 mm 3 mps 759 mmHg 61%
    16:00 +30°C° 0 mm 3 mps 758 mmHg 63%
    17:00 +28°C° 0 mm 2 mps 759 mmHg 74%
    18:00 +26°C° 0 mm 2 mps 759 mmHg 84%
    19:00 +24°C° 0 mm 2 mps 760 mmHg 95%
    20:00 +24°C° 0 mm 2 mps 760 mmHg 96%
    21:00 +23°C° 0 mm 2 mps 760 mmHg 97%
    22:00 +22°C° 0 mm 1 mps 761 mmHg 99%
    23:00 +22°C° 0 mm 1 mps 760 mmHg 99%

    29 March, Wednesday

    Time Temperature Precipitation Wind Pressure Humidity
    00:00 +22°C° 0 mm 1 mps 760 mmHg 99%
    01:00 +22°C° 0 mm 1 mps 760 mmHg 98%
    02:00 +21°C° 0 mm 1 mps 760 mmHg 98%
    03:00 +21°C° 0 mm 1 mps 760 mmHg 99%
    04:00 +21°C° 0 mm 1 mps 759 mmHg 99%
    05:00 +22°C° 0 mm 1 mps 760 mmHg 97%
    06:00 +23°C° 0 mm 1 mps 760 mmHg 95%
    07:00 +24°C° 0 mm 1 mps 760 mmHg 93%
    08:00 +26°C° 0 mm 1 mps 760 mmHg 81%
    09:00 +29°C° 0 mm 1 mps 760 mmHg 70%
    10:00 +31°C° 0 mm 1 mps 760 mmHg 59%
    11:00 +32°C° 0 mm 2 mps 760 mmHg 54%
    12:00 +35°C° 0 mm 2 mps 759 mmHg 48%
    13:00 +36°C° 0 mm 3 mps 759 mmHg 43%
    14:00 +36°C° 0 mm 4 mps 758 mmHg 45%
    15:00 +35°C° 0 mm 4 mps 758 mmHg 47%
    16:00 +34°C° 0 mm 5 mps 757 mmHg 50%
    17:00 +32°C° 0 mm 5 mps 758 mmHg 58%
    18:00 +29°C° 0 mm 5 mps 758 mmHg 66%
    19:00 +27°C° 0 mm 5 mps 758 mmHg 75%
    20:00 +26°C° 0 mm 5 mps 758 mmHg 78%
    21:00 +25°C° 0 mm 5 mps 759 mmHg 82%
    22:00 +23°C° 0 mm 5 mps 759 mmHg 85%
    23:00 +23°C° 0 mm 5 mps 758 mmHg 86%

    30 March, Thursday

    Time Temperature Precipitation Wind Pressure Humidity
    00:00 +22°C° 0 mm 5 mps 758 mmHg 86%
    01:00 +22°C° 0 mm 5 mps 757 mmHg 87%
    02:00 +22°C° 0 mm 5 mps 757 mmHg 85%
    03:00 +22°C° 0 mm 4 mps 757 mmHg 84%
    04:00 +22°C° 0 mm 4 mps 757 mmHg 82%
    05:00 +22°C° 0 mm 4 mps 757 mmHg 80%
    06:00 +22°C° 0 mm 4 mps 757 mmHg 77%
    07:00 +22°C° 0 mm 4 mps 757 mmHg 75%
    08:00 +25°C° 0 mm 4 mps 757 mmHg 69%
    09:00 +27°C° 0 mm 3 mps 757 mmHg 63%
    10:00 +29°C° 0 mm 3 mps 757 mmHg 58%
    11:00 +29°C° 0.2 mm 3 mps 756 mmHg 60%
    12:00 +29°C° 0.2 mm 3 mps 756 mmHg 62%
    13:00 +30°C° 0.2 mm 3 mps 755 mmHg 64%
    14:00 +28°C° 1.8 mm 3 mps 755 mmHg 74%
    15:00 +27°C° 1.8 mm 3 mps 755 mmHg 84%
    16:00 +25°C° 1.8 mm 3 mps 754 mmHg 95%
    17:00 +23°C° 5.2 mm 5 mps 755 mmHg 95%
    18:00 +22°C° 5.2 mm 7 mps 755 mmHg 96%
    19:00 +21°C° 5.2 mm 9 mps 756 mmHg 97%
    20:00 +19°C° 3.3 mm 9 mps 757 mmHg 97%
    21:00 +18°C° 3.3 mm 10 mps 757 mmHg 96%
    22:00 +18°C° 3.3 mm 10 mps 758 mmHg 96%
    23:00 +17°C° 0.4 mm 10 mps 759 mmHg 95%

    31 March, Friday

    Time Temperature Precipitation Wind Pressure Humidity
    00:00 +17°C° 0.4 mm 9 mps 759 mmHg 94%
    01:00 +16°C° 0.4 mm 8 mps 759 mmHg 93%
    02:00 +16°C° 0.1 mm 8 mps 759 mmHg 91%
    03:00 +16°C° 0.1 mm 8 mps 760 mmHg 89%
    04:00 +16°C° 0.1 mm 8 mps 760 mmHg 87%
    05:00 +15°C° 0.2 mm 7 mps 761 mmHg 86%
    06:00 +15°C° 0.2 mm 7 mps 762 mmHg 86%
    07:00 +15°C° 0.2 mm 7 mps 762 mmHg 86%
    08:00 +16°C° 0.1 mm 7 mps 763 mmHg 80%
    09:00 +17°C° 0.1 mm 6 mps 763 mmHg 75%
    10:00 +20°C° 0.1 mm 6 mps 763 mmHg 69%
    11:00 +20°C° 0.1 mm 6 mps 763 mmHg 66%
    12:00 +21°C° 0.1 mm 6 mps 763 mmHg 62%
    13:00 +22°C° 0.1 mm 6 mps 763 mmHg 59%
    14:00 +22°C° 0.1 mm 6 mps 763 mmHg 61%
    15:00 +22°C° 0.1 mm 6 mps 763 mmHg 63%
    16:00 +21°C° 0.1 mm 6 mps 763 mmHg 65%
    17:00 +20°C° 0.1 mm 6 mps 763 mmHg 72%
    18:00 +17°C° 0.1 mm 5 mps 764 mmHg 79%
    19:00 +16°C° 0.1 mm 5 mps 764 mmHg 87%
    20:00 +16°C° 0.2 mm 5 mps 765 mmHg 88%
    21:00 +17°C° 0.2 mm 4 mps 765 mmHg 89%
    22:00 +17°C° 0.2 mm 4 mps 765 mmHg 90%
    23:00 +17°C° 0.2 mm 4 mps 765 mmHg 92%
    Show more